Location: Dam Number 54
(32.0868°N, 97.0253°W)
Time: 22:05:32
(UTC+00:00)

Daily predictions for brighter satellites

Satellite Brightness Start Highest point End
(mag) Time Altitude Azimuth Time Altitude Azimuth Time Altitude Azimuth
Milstar 3 Cent rocket 3.5 12:01:50 16° WSW 12:05:32 36° SSW 12:13:01 10° SE
Meteor 2-17 Rocket 4.3 12:00:18 10° N 12:06:22 80° W 12:12:23 10° S
Cosmos 1933 3.3 12:06:55 10° NNW 12:10:47 55° W 12:14:37 10° S
ERS-2 1.5 12:08:39 10° NNE 12:11:34 81° ESE 12:14:28 10° S
Cosmos 1627 Rocket 4.5 12:06:03 10° N 12:12:26 77° W 12:18:43 10° S
SAR-Lupe-2 4.2 12:09:15 10° NNE 12:12:46 57° E 12:16:17 10° S
Cosmos 1862 3.3 12:09:09 10° SSW 12:12:52 50° W 12:16:37 10° N
Cosmos 2151 3.0 12:08:47 10° S 12:12:57 83° E 12:17:10 10° N
COSMO-SKYMED 1 2.7 12:08:52 10° S 12:13:05 51° W 12:17:19 10° NNW
Meteor 2-3 Rocket 4.3 12:08:10 10° SW 12:13:10 34° WNW 12:18:12 10° NNW
PSLV R/B 3.5 12:10:40 10° N 12:14:54 62° WNW 12:19:06 10° SSW
GENESIS II 4.0 12:18:26 10° SSW 12:22:15 78° WNW 12:26:07 10° NNE
USA 215 3.5 12:17:09 10° NNE 12:23:18 46° NW 12:29:28 10° WSW
Meteor 1-31 Rocket 4.5 12:20:37 10° NNE 12:24:09 37° E 12:27:40 10° SSE
SJ-7 4.4 12:22:39 10° NNE 12:26:46 87° ESE 12:30:50 10° SSW
BlueWalker 3 2.0 12:25:35 13° NW 12:28:52 62° SW 12:32:37 10° SSE
ATLAS 2A CENTAUR R/B 3.3 12:32:05 10° WSW 12:34:39 16° SSW 12:36:17 10° SSE
SMAP 3.5 12:32:46 10° NNE 12:37:24 70° E 12:42:01 10° S
Cosmos 1110 Rocket 4.0 12:32:52 10° NNW 12:38:11 75° WSW 12:43:26 10° S
Cosmos 1842 Rocket 3.8 12:34:31 10° N 12:38:58 75° E 12:43:24 10° S
BREEZE-M R/B 3.2 12:32:33 10° NW 12:39:17 90° WNW 12:42:42 10° SE
Aureole 2 4.3 12:36:50 10° NNW 12:39:50 68° ENE 12:42:41 10° SSE
Cosmos 1437 Rocket 3.1 12:37:59 10° SSW 12:41:29 39° W 12:44:58 10° N
Cosmos 1782 4.3 12:39:37 10° NW 12:42:11 17° W 12:44:43 10° SW
H-2A R/B 3.6 12:40:54 10° NW 12:42:35 12° WNW 12:44:15 10° W
Helios 1B rocket 2.8 12:41:25 10° N 12:45:09 40° WNW 12:48:52 10° SW
CZ-4B R/B 4.1 12:43:52 10° NNE 12:47:55 82° ESE 12:52:06 10° S
DELTA 2 DEB (DPAF) 4.1 12:44:16 10° SSE 12:48:34 90° W 12:52:52 10° NNW
Cosmos 1515 4.2 12:46:27 10° NNW 12:49:45 34° W 12:53:02 10° SSW
APEX 3.8 23:48:43 10° SW 23:51:48 43° WNW 23:54:35 10° N
Cosmos-2242 3.0 23:48:55 10° S 23:53:15 82° E 23:57:36 10° N
CZ-2D R/B 3.9 23:49:40 10° S 23:53:16 56° W 23:56:54 10° NNW
